Weather History for KBMG - December, 2010

Change the Weather History Date:

Friday, December 24, 2010

  Actual Average Record
Temperature  
Mean Temperature 31 °F 30 °F  
Max Temperature 33 °F 39 °F - ()
Min Temperature 28 °F 22 °F - ()
Degree Days  
Heating Degree Days 34 35  
Month to date heating degree days 975 771  
Since 1 July heating degree days 1939 1827  
Cooling Degree Days 0 0  
Month to date cooling degree days 0 0  
Year to date cooling degree days 1323 927  
Moisture  
Dew Point 25 °F    
Average Humidity 79    
Maximum Humidity 92    
Minimum Humidity 66    
Precipitation  
Precipitation 0.11 in 0.15 in - ()
Month to date precipitation 1.17 2.60  
Year to date precipitation 38.89 46.61  
Sea Level Pressure  
Sea Level Pressure 30.25 in    
Wind  
Wind Speed 3 mph (ENE)    
Max Wind Speed 8 mph    
Max Gust Speed 9 mph    
Visibility 5 miles    
Events Fog , Snow    
T = Trace of Precipitation, MM = Missing Value Source: NWS Daily Summary

Daily Weather History Graph

Daily Weather History Graph

Search for Another Location

Airport or City:

Trip Planner

Search our weather history database for the weather conditions in past years. The results will help you decide how hot, cold, wet, or windy it might be!

Date:

Astronomy

Dec. 24, 2010 Rise Set
Actual Time 8:03 AM EST 5:28 PM EST
Civil Twilight 7:33 AM EST 5:58 PM EST
Nautical Twilight 6:59 AM EST 6:32 PM EST
Astronomical Twilight 6:27 AM EST 7:05 PM EST
Moon 9:33 PM EST (12/24) 10:24 AM EST (12/24)
Length of Visible Light 10h 25m
Length of Day
9h 25m
Waning Gibbous, 86% of the Moon is Illuminated
Dec 24
Waning Gibbous
Dec 27
Last Quarter
Jan 4
New
Jan 12
First Quarter
Jan 19
Full

Hourly Weather History & Observations

Time (EST) Temp. Windchill Dew Point Humidity Pressure Visibility Wind Dir Wind Speed Gust Speed Precip Events Conditions
12:53 AM 30.0 °F 25.2 °F 24.1 °F 79% 30.39 in 10.0 mi NNE 4.6 mph - N/A   Overcast
1:53 AM 30.9 °F 25.2 °F 23.0 °F 72% 30.38 in 10.0 mi NE 5.8 mph - N/A   Overcast
2:53 AM 30.0 °F - 24.1 °F 79% 30.39 in 10.0 mi Calm Calm - N/A   Overcast
3:53 AM 30.0 °F 25.2 °F 23.0 °F 75% 30.38 in 10.0 mi NE 4.6 mph - N/A   Overcast
4:05 AM 30.2 °F 25.4 °F 23.0 °F 75% 30.35 in 10.0 mi ENE 4.6 mph - N/A   Overcast
4:53 AM 30.0 °F 24.1 °F 23.0 °F 75% 30.35 in 10.0 mi ENE 5.8 mph - N/A   Overcast
5:33 AM 30.2 °F - 23.0 °F 75% 30.34 in 10.0 mi Calm Calm - N/A   Overcast
5:53 AM 30.0 °F - 23.0 °F 75% 30.37 in 10.0 mi Calm Calm - N/A   Overcast
6:32 AM 30.2 °F - 23.0 °F 75% 30.35 in 10.0 mi Calm Calm - N/A   Overcast
6:53 AM 30.0 °F 26.5 °F 24.1 °F 79% 30.37 in 10.0 mi ENE 3.5 mph - N/A   Overcast
7:53 AM 30.0 °F - 23.0 °F 75% 30.38 in 10.0 mi Calm Calm - N/A   Overcast
8:18 AM 28.4 °F - 24.8 °F 86% 30.36 in 10.0 mi Calm Calm - N/A   Overcast
8:53 AM 30.0 °F - 25.0 °F 82% 30.39 in 10.0 mi Calm Calm - N/A   Overcast
9:44 AM 30.2 °F 25.4 °F 24.8 °F 80% 30.35 in 10.0 mi NNE 4.6 mph - N/A   Overcast
9:53 AM 30.9 °F 24.3 °F 24.1 °F 76% 30.38 in 10.0 mi NNE 6.9 mph - N/A   Overcast
10:53 AM 32.0 °F - 24.1 °F 73% 30.38 in 10.0 mi Calm Calm - N/A   Overcast
11:53 AM 32.0 °F 28.7 °F 23.0 °F 69% 30.32 in 10.0 mi ESE 3.5 mph - N/A   Scattered Clouds
12:53 PM 32.0 °F - 23.0 °F 69% 30.30 in 10.0 mi Calm Calm - N/A   Partly Cloudy
1:53 PM 32.0 °F - 23.0 °F 69% 30.25 in 10.0 mi Calm Calm - N/A   Partly Cloudy
2:53 PM 32.0 °F - 23.0 °F 69% 30.27 in 10.0 mi Calm Calm - N/A   Mostly Cloudy
3:36 PM 32.0 °F - 24.8 °F 75% 30.23 in 8.0 mi Calm Calm - 0.00 in Snow Light Snow
3:53 PM 32.0 °F - 24.1 °F 73% 30.26 in 7.0 mi Calm Calm - 0.00 in Snow Light Snow
4:53 PM 30.9 °F 27.5 °F 26.1 °F 82% 30.25 in 4.0 mi North 3.5 mph - 0.00 in Snow Light Snow
5:04 PM 30.2 °F 26.7 °F 26.6 °F 86% 30.22 in 5.0 mi North 3.5 mph - 0.00 in   Haze
5:30 PM 30.2 °F 25.4 °F 26.6 °F 86% 30.22 in 3.0 mi NNE 4.6 mph - 0.00 in Snow Light Snow
5:40 PM 30.2 °F 26.7 °F 26.6 °F 86% 30.21 in 2.0 mi NNE 3.5 mph - 0.00 in Snow Light Snow
5:46 PM 30.2 °F 26.7 °F 26.6 °F 86% 30.21 in 1.2 mi NNE 3.5 mph - 0.00 in Snow Light Snow
5:53 PM 30.0 °F 24.1 °F 26.1 °F 85% 30.24 in 0.8 mi NNE 5.8 mph - 0.01 in Snow Light Snow
6:01 PM 30.2 °F 23.4 °F 26.6 °F 86% 30.21 in 0.5 mi NNE 6.9 mph - 0.01 in Fog , Snow Snow
6:22 PM 30.2 °F 26.7 °F 26.6 °F 86% 30.20 in 1.2 mi ENE 3.5 mph - 0.02 in Snow Light Snow
6:33 PM 30.2 °F 25.4 °F 26.6 °F 86% 30.20 in 1.5 mi ENE 4.6 mph - 0.02 in Snow Light Snow
6:43 PM 30.2 °F - 26.6 °F 86% 30.20 in 1.5 mi Calm Calm - 0.02 in Snow Light Snow
6:53 PM 30.0 °F 25.2 °F 27.0 °F 88% 30.22 in 1.2 mi ENE 4.6 mph - 0.02 in Snow Light Snow
7:03 PM 30.2 °F 26.7 °F 26.6 °F 86% 30.19 in 1.5 mi NE 3.5 mph - 0.01 in Snow Light Snow
7:11 PM 30.2 °F 26.7 °F 26.6 °F 86% 30.19 in 2.0 mi NE 3.5 mph - 0.01 in Snow Light Snow
7:23 PM 30.2 °F 24.3 °F 26.6 °F 86% 30.19 in 2.5 mi NE 5.8 mph - 0.01 in Snow Light Snow
7:34 PM 28.4 °F 24.6 °F 26.6 °F 93% 30.19 in 1.8 mi NNE 3.5 mph - 0.01 in Snow Light Snow
7:53 PM 30.0 °F 26.5 °F 27.0 °F 88% 30.21 in 1.0 mi ENE 3.5 mph - 0.02 in Snow Light Snow
8:06 PM 28.4 °F 24.6 °F 26.6 °F 93% 30.18 in 2.0 mi NE 3.5 mph - 0.00 in Snow Light Snow
8:33 PM 30.2 °F 26.7 °F 26.6 °F 86% 30.18 in 2.0 mi East 3.5 mph - 0.00 in Snow Light Snow
8:40 PM 30.2 °F 26.7 °F 26.6 °F 86% 30.18 in 2.5 mi East 3.5 mph - 0.00 in Snow Light Snow
8:53 PM 30.0 °F 25.2 °F 27.0 °F 88% 30.20 in 3.0 mi East 4.6 mph - 0.00 in Snow Light Snow
9:06 PM 30.2 °F 26.7 °F 26.6 °F 86% 30.17 in 2.5 mi East 3.5 mph - 0.00 in Snow Light Snow
9:15 PM 30.2 °F - 26.6 °F 86% 30.17 in 2.5 mi Calm Calm - 0.00 in Snow Light Snow
9:24 PM 30.2 °F 25.4 °F 26.6 °F 86% 30.17 in 1.2 mi East 4.6 mph - 0.01 in Snow Light Snow
9:31 PM 30.2 °F 25.4 °F 26.6 °F 86% 30.17 in 1.2 mi East 4.6 mph - 0.01 in Snow Light Snow
9:40 PM 28.4 °F 23.3 °F 26.6 °F 93% 30.17 in 0.8 mi East 4.6 mph - 0.02 in Snow Light Snow
9:53 PM 28.9 °F 23.9 °F 26.1 °F 89% 30.19 in 1.2 mi ENE 4.6 mph - 0.02 in Snow Light Snow
10:26 PM 28.4 °F 23.3 °F 26.6 °F 93% 30.16 in 0.8 mi East 4.6 mph - 0.01 in Snow Light Snow
10:53 PM 28.0 °F 21.7 °F 26.1 °F 92% 30.19 in 1.0 mi East 5.8 mph - 0.03 in Snow Light Snow
11:12 PM 28.4 °F 23.3 °F 26.6 °F 93% 30.16 in 1.5 mi East 4.6 mph - 0.00 in Snow Light Snow
11:25 PM 28.4 °F 24.6 °F 26.6 °F 93% 30.17 in 2.0 mi East 3.5 mph - 0.00 in Snow Light Snow
11:53 PM 28.9 °F 25.2 °F 26.1 °F 89% 30.18 in 2.0 mi East 3.5 mph - 0.01 in Snow Light Snow
11:59 PM 28.4 °F 24.6 °F 26.6 °F 93% 30.16 in 1.8 mi East 3.5 mph - 0.00 in Snow Light Snow